#timestamp,LO_Frequency,Hit,StdDev 
1627290015.9,286046998.9,N
1627290035.7,286046998.5,N
1627290055.6,286046998.1,N
1627290075.4,286046998.2,N
1627290095.2,286047001.0,N
1627290115.1,286047000.4,N
1627290116.0,286047000.4,N
1627290135.8,286047000.2,N
1627290155.6,286047000.0,N
1627290175.5,286047000.4,N
1627290195.3,286047000.8,N
1627290215.1,286047001.2,N
1627290235.9,286047000.4,N
1627290255.7,286047001.2,N
1627290275.5,286047000.9,N
1627290295.4,286047000.9,N
1627290315.2,286047000.7,N
1627290335.0,286047000.7,N
1627290335.9,286047000.7,N
1627290355.8,286047001.0,N
1627290375.6,286046998.1,N
1627290395.4,286046998.6,N
1627290415.3,286046999.2,N
1627290435.1,286046998.7,N
1627290436.0,286046998.7,N
1627290455.8,286046998.9,N
1627290475.7,286046999.0,N
1627290495.5,286046998.4,N
1627290515.3,286046999.0,N
1627290535.2,286047001.1,N
1627290555.9,286047000.8,N
1627290575.7,286046998.5,N
1627290595.6,286047001.1,N
1627290615.4,286047000.0,N
1627290635.2,286047001.1,N
1627290655.1,286047000.7,N
1627290656.0,286047000.7,N
1627290675.8,286047000.4,N
1627290695.6,286047000.8,N
1627290715.5,286046999.3,N
1627290735.3,286046999.3,N
1627290755.1,286046996.7,Y
1627290775.9,286046997.1,P
1627290795.7,286046997.9,N
1627290815.5,286046998.0,N
1627290835.4,286046997.2,N
1627290855.2,286046997.7,N
1627290875.0,286046996.8,Y
1627290875.9,286046996.8,P
1627290895.8,286046998.4,N
1627290915.6,286046998.8,N
1627290935.4,286046998.3,N
1627290955.3,286046998.2,N
1627290975.1,286046998.2,N
1627290976.0,286046998.2,Y
1627290995.8,286046999.9,P
1627291015.7,286047000.4,N
1627291035.5,286047000.4,N
1627291055.3,286047000.1,N
1627291075.2,286046999.7,N
1627291095.9,286047000.1,N
1627291115.7,286047002.5,Y
1627291135.6,286047002.7,P
1627291155.4,286047002.7,N
1627291175.2,286047002.7,N
1627291195.1,286047002.6,N
1627291196.0,286047002.6,N
1627291215.8,286047002.4,N
1627291235.6,286046999.7,N
1627291255.5,286047002.0,N
1627291275.3,286047002.0,N
1627291295.1,286047004.2,Y
1627291315.9,286047002.0,P
1627291335.7,286047002.7,P
1627291355.5,286046999.8,N
1627291375.4,286047002.4,N
1627291395.2,286047001.9,N
1627291415.0,286046999.7,N
1627291415.9,286046999.7,N
1627291435.8,286047002.1,N
1627291455.6,286047002.3,N
1627291475.4,286047002.7,N
1627291495.3,286046999.8,N
1627291515.1,286047002.3,N
1627291535.8,286047000.2,N
1627291555.7,286047000.5,N
1627291575.5,286046998.1,N
1627291595.3,286047000.9,N
1627291615.2,286047000.4,N
1627291635.9,286047000.5,N
1627291655.7,286046998.6,N
1627291675.6,286046998.2,N
1627291695.4,286047001.1,N
1627291715.2,286046998.1,N
1627291735.1,286046997.0,N
1627291736.0,286046997.0,N
1627291755.8,286046999.0,N
1627291775.6,286047000.8,N
1627291795.5,286046998.6,N
1627291815.3,286046999.3,N
1627291835.1,286046998.7,N
1627291855.9,286046999.1,N
1627291875.7,286046998.9,N
1627291895.5,286046998.7,N
1627291915.4,286046998.3,N
1627291935.2,286046998.8,N
1627291955.0,286046998.4,N
1627291955.9,286046998.4,N
1627291975.8,286046998.5,N
1627291995.6,286046998.2,N
1627292015.4,286046998.7,N
1627292035.3,286046998.9,N
1627292055.1,286046999.3,N
1627292056.0,286046999.3,N
1627292075.8,286046998.7,N
1627292095.7,286046999.0,N
1627292115.5,286046999.6,N
1627292135.3,286046998.6,N
1627292155.2,286046998.4,N
1627292175.9,286046996.8,Y
1627292195.7,286046998.1,P
1627292215.6,286046998.1,P
1627292235.4,286047001.0,N
1627292255.2,286047000.6,N
1627292275.1,286047000.9,N
1627292276.0,286047000.9,N
1627292295.8,286046998.8,N
1627292315.6,286046999.4,N
1627292335.5,286046999.2,N
1627292355.3,286046998.6,N
1627292375.1,286046998.8,N
1627292395.9,286046999.3,N
1627292415.7,286046998.7,N
1627292435.5,286046999.5,N
1627292455.4,286046998.7,N
1627292475.2,286046998.7,N
1627292495.0,286046998.1,N
1627292495.9,286046998.1,N
1627292515.8,286047001.2,N
1627292535.6,286047000.8,N
1627292555.4,286047000.9,N
1627292575.3,286047000.2,N
1627292595.1,286046999.8,N
1627292596.0,286046999.8,N
1627292615.8,286047002.3,N
1627292635.7,286047002.2,N
1627292655.5,286047002.2,N
1627292675.3,286047002.3,N
1627292695.2,286047002.4,N
1627292715.9,286047002.8,N
1627292735.7,286047002.4,N
1627292755.6,286047002.7,N
1627292775.4,286047000.8,N
1627292795.2,286047000.9,N
1627292815.1,286046999.8,N
1627292816.0,286046999.8,N
1627292835.8,286047002.8,N
1627292855.6,286047002.8,N
1627292875.5,286047002.3,N
1627292895.3,286047002.8,N
1627292915.1,286047002.6,N
1627292935.9,286047002.4,N
1627292955.7,286046999.7,N
1627292975.5,286047002.6,N
1627292995.4,286047002.8,N
1627293015.2,286047002.3,N
1627293035.0,286046999.7,N
1627293035.9,286046999.7,N
1627293055.8,286046999.8,N
1627293075.6,286047000.7,N
1627293095.4,286047000.8,N
1627293115.3,286047000.5,N
1627293135.1,286047000.7,N
1627293155.8,286047000.2,N
1627293175.7,286047000.4,N
1627293195.5,286047000.0,N
1627293215.3,286047000.5,N
1627293235.2,286046999.1,N
1627293255.9,286047000.6,N
1627293275.7,286047000.6,N
1627293295.6,286046998.2,N
1627293315.4,286046999.3,N
1627293335.2,286047000.5,N
1627293355.1,286047000.5,N
1627293356.0,286047000.5,N
1627293375.8,286047000.9,N
1627293395.6,286047001.1,N
1627293415.5,286046998.1,N
1627293435.3,286047000.5,N
1627293455.1,286046998.2,N
1627293475.9,286046998.2,N
1627293495.7,286047000.8,N
1627293515.5,286047001.2,N
1627293535.4,286047001.0,N
1627293555.2,286047000.9,N
1627293575.0,286047000.6,N
1627293575.9,286047000.6,N
1627293595.8,286046999.8,N
